SCP
0 0 0 0 0 0 -0 -0 -0 -0 -0 -0 -0 -0 -0 0 0 0 0 0 0 0 0 0 0 0 0 0 0 0 -0 0
0 0 1 0 0 0 0 0 0 0 -0 -0 -0 -0 0 0 0 0 0 0 0 0 0 0 0 0 0 0 0 0 -0 -0
1 1 1 0 1 0 0 0 0 0 0 0 0 0 0 0 0 0 0 0 0 0 0 0 0 0 0 0 0 0 0 0
1 1 1 1 0 0 1 0 0 0 0 0 0 0 0 0 0 0 0 0 0 0 0 0 0 0 0 0 0 0 0 0
1 1 1 0 0 1 1 1 1 1 1 0 0 0 0 0 0 0 0 0 0 0 0 0 0 0 0 0 0 0 0 -0
1 1 1 0 0 0 1 1 1 0 0 1 1 0 0 0 0 0 0 0 0 0 0 0 0 0 0 0 0 -0 0 0
1 1 1 0 1 1 1 1 1 1 1 1 1 1 0 0 0 0 0 0 0 0 0 0 0 0 0 0 0 0 0 0
1 1 1 0 1 1 1 1 1 1 1 1 0 0 0 0 0 0 0 0 0 0 0 0 0 0 0 0 0 0 0 0
1 1 1 1 1 1 1 1 1 1 0 0 0 0 0 0 0 0 0 0 0 0 0 0 0 0 0 0 0 0 0 0
0 0 1 1 1 1 1 1 1 1 1 0 0 0 0 0 0 0 0 0 0 0 0 0 0 0 0 0 0 0 0 0
0 0 1 1 1 1 1 1 1 1 0 0 0 0 0 0 0 0 0 0 0 0 0 0 0 0 0 0 0 0 0 0
0 0 0 1 1 1 1 1 1 1 1 0 0 0 0 0 0 0 0 0 0 0 0 0 0 0 0 0 0 0 0 0
0 0 0 0 0 0 1 1 1 1 1 1 0 0 0 0 0 0 0 0 0 0 0 0 0 0 0 0 0 0 0 0
0 0 0 0 0 0 0 1 1 0 0 0 0 0 0 0 0 0 0 0 0 0 0 0 0 0 0 0 0 0 0 0
0 1 1 1 0 0 0 0 0 0 0 0 0 0 0 0 0 0 0 0 0 0 0 0 0 0 0 0 0 0 0 0
0 0 1 1 1 1 0 0 0 0 0 0 0 0 0 0 0 0 0 0 0 0 0 0 0 0 0 0 0 0 0 0
0 0 0 0 1 1 1 1 1 1 0 0 0 0 0 0 0 0 0 0 0 0 0 0 0 0 0 0 0 0 0 0
0 0 0 0 0 1 1 1 0 1 0 0 1 1 0 0 0 0 0 0 0 0 0 0 0 0 0 0 0 0 0 0
0 0 0 0 0 0 0 0 0 0 0 0 0 0 0 0 0 0 0 0 0 0 0 0 0 0 0 0 0 0 0 0
Wind_Speed_500mb
32 33 35 38 38 35 32 35 38 39 41 40 38 35 32 27 24 21 20 18 17 17 14 16 11 7 5 8 9 8 9 10
23 29 30 35 38 39 36 34 37 40 41 41 39 37 33 29 25 22 21 19 17 16 13 15 12 5 7 10 11 11 11 9
25 29 30 32 34 36 38 37 37 40 42 43 41 37 35 30 24 21 20 19 18 16 14 15 12 6 8 10 10 12 11 6
29 32 35 36 36 38 39 40 39 40 43 43 42 39 35 30 24 21 19 19 18 16 15 14 13 9 6 9 8 8 8 4
30 33 35 38 39 40 42 43 42 40 42 43 42 39 36 31 26 22 20 19 20 17 15 16 15 12 6 6 7 4 5 4
27 34 36 36 39 41 43 44 45 44 42 43 43 41 39 34 30 26 22 20 20 19 17 18 17 14 9 4 6 6 6 3
29 30 33 37 39 41 43 44 47 48 47 46 47 46 43 37 32 28 25 23 22 22 20 19 19 17 15 7 4 6 10 8
24 28 30 34 37 39 42 46 49 51 51 51 48 47 44 41 37 33 28 25 22 22 22 22 21 18 16 11 10 10 11 13
16 16 25 34 41 43 40 41 48 52 54 55 52 49 48 46 41 35 31 28 24 22 23 25 24 21 16 13 11 12 17 17
18 18 20 28 36 40 39 41 44 48 52 53 53 51 50 47 43 39 36 32 29 25 25 28 30 24 19 17 15 17 19 18
23 26 25 29 33 30 32 35 38 39 45 47 49 51 52 50 46 43 41 36 33 28 29 31 35 29 23 22 22 17 16 19
25 24 23 19 22 24 23 25 32 29 33 37 41 42 47 50 49 47 45 41 34 32 32 35 36 36 29 26 26 22 14 22
25 25 28 20 16 18 19 18 19 20 23 23 28 35 41 43 49 50 50 47 38 35 34 38 40 37 31 30 28 24 25 22
28 27 30 27 20 12 18 18 19 19 18 20 24 29 39 45 41 47 53 51 46 43 38 35 32 32 31 34 31 25 25 23
40 34 34 29 23 18 21 17 19 20 23 25 29 31 32 40 42 43 44 52 51 48 47 42 38 32 36 34 34 33 29 28
47 42 38 35 27 26 25 26 25 20 21 20 25 27 28 32 38 49 52 41 45 53 52 47 42 37 38 41 38 35 35 37
49 48 41 40 34 33 31 26 29 32 34 35 31 28 32 34 39 41 48 44 39 44 53 51 47 41 45 45 46 42 28 38
33 36 38 35 36 36 34 31 32 36 44 44 40 41 41 39 36 35 41 47 48 46 51 56 52 48 51 54 55 37 16 21
20 22 23 26 26 23 27 34 41 43 44 46 51 56 56 51 45 38 38 47 54 60 55 58 60 55 56 60 60 55 49 31
Wind_Direction_500mb
172 183 188 191 195 198 197 196 194 192 190 189 189 187 185 185 183 174 166 161 155 146 156 139 141 148 108 76 79 95 92 116
176 192 196 197 199 202 204 203 201 198 195 192 192 191 190 192 189 180 170 165 162 153 160 146 150 164 98 98 94 102 92 111
188 194 199 203 206 210 211 211 209 205 202 199 198 197 197 199 195 188 176 168 166 163 167 157 153 162 110 105 98 103 87 90
203 205 202 205 208 213 218 218 215 212 209 207 204 203 204 205 202 195 183 173 172 173 174 165 155 162 115 91 88 83 71 75
217 217 213 210 213 215 219 221 220 216 214 212 211 208 209 209 207 203 194 182 177 183 181 176 164 170 154 84 46 26 26 41
217 220 221 221 219 221 224 224 223 220 218 215 214 212 213 212 212 210 202 193 183 188 193 186 177 179 180 129 6 358 327 334
220 222 221 223 226 225 228 229 229 225 221 219 217 216 216 216 217 217 212 204 196 192 199 201 193 185 184 185 302 355 342 299
234 237 236 232 233 237 230 230 229 228 227 225 221 221 220 220 221 223 222 218 213 205 202 216 207 205 203 214 241 255 288 310
228 242 243 247 243 243 243 238 235 231 230 229 226 224 225 226 226 229 232 230 225 220 211 214 218 219 215 224 250 269 272 275
244 234 248 249 250 249 247 249 245 238 237 237 232 229 229 231 233 235 237 237 233 226 220 211 221 220 232 244 263 276 282 273
243 249 231 233 231 235 246 251 255 247 241 241 238 239 238 237 236 239 243 243 242 238 229 221 214 226 236 251 266 285 288 267
247 231 211 222 220 227 238 243 255 254 247 243 243 245 250 249 247 244 245 248 249 244 232 227 221 224 237 249 259 254 240 259
238 232 190 207 236 237 241 244 257 264 259 254 254 248 253 255 252 251 250 250 249 244 240 230 226 232 236 247 251 260 244 231
233 219 230 237 237 249 230 244 247 257 258 265 265 265 267 260 254 253 252 251 249 244 239 234 229 234 248 251 252 250 239 224
232 230 233 244 233 238 230 233 236 249 263 267 277 276 283 273 277 268 255 250 245 245 237 237 237 252 249 247 234 225 221 221
226 227 237 233 239 237 235 232 244 264 270 285 297 304 298 283 285 279 254 251 248 242 235 238 242 248 248 234 220 218 219 223
235 238 241 239 234 242 240 260 270 279 277 268 277 287 297 292 286 283 273 252 255 246 233 236 239 238 235 229 212 219 216 228
235 237 243 236 239 248 250 248 261 269 277 277 283 288 292 300 296 291 287 271 256 247 239 234 238 234 234 222 225 214 202 218
194 196 198 212 229 234 240 250 254 260 275 284 281 281 283 282 284 289 292 281 266 248 244 241 239 237 235 231 227 233 235 246
Wind_Speed_850mb
32 33 35 38 38 35 32 35 38 39 41 40 38 35 32 27 24 21 20 18 17 17 14 16 11 7 5 8 9 8 9 10
23 29 30 35 38 39 36 34 37 40 41 41 39 37 33 29 25 22 21 19 17 16 13 15 12 5 7 10 11 11 11 9
25 29 30 32 34 36 38 37 37 40 42 43 41 37 35 30 24 21 20 19 18 16 14 15 12 6 8 10 10 12 11 6
29 32 35 36 36 38 39 40 39 40 43 43 42 39 35 30 24 21 19 19 18 16 15 14 13 9 6 9 8 8 8 4
30 33 35 38 39 40 42 43 42 40 42 43 42 39 36 31 26 22 20 19 20 17 15 16 15 12 6 6 7 4 5 4
27 34 36 36 39 41 43 44 45 44 42 43 43 41 39 34 30 26 22 20 20 19 17 18 17 14 9 4 6 6 6 3
29 30 33 37 39 41 43 44 47 48 47 46 47 46 43 37 32 28 25 23 22 22 20 19 19 17 15 7 4 6 10 8
24 28 30 34 37 39 42 46 49 51 51 51 48 47 44 41 37 33 28 25 22 22 22 22 21 18 16 11 10 10 11 13
16 16 25 34 41 43 40 41 48 52 54 55 52 49 48 46 41 35 31 28 24 22 23 25 24 21 16 13 11 12 17 17
18 18 20 28 36 40 39 41 44 48 52 53 53 51 50 47 43 39 36 32 29 25 25 28 30 24 19 17 15 17 19 18
23 26 25 29 33 30 32 35 38 39 45 47 49 51 52 50 46 43 41 36 33 28 29 31 35 29 23 22 22 17 16 19
25 24 23 19 22 24 23 25 32 29 33 37 41 42 47 50 49 47 45 41 34 32 32 35 36 36 29 26 26 22 14 22
25 25 28 20 16 18 19 18 19 20 23 23 28 35 41 43 49 50 50 47 38 35 34 38 40 37 31 30 28 24 25 22
28 27 30 27 20 12 18 18 19 19 18 20 24 29 39 45 41 47 53 51 46 43 38 35 32 32 31 34 31 25 25 23
40 34 34 29 23 18 21 17 19 20 23 25 29 31 32 40 42 43 44 52 51 48 47 42 38 32 36 34 34 33 29 28
47 42 38 35 27 26 25 26 25 20 21 20 25 27 28 32 38 49 52 41 45 53 52 47 42 37 38 41 38 35 35 37
49 48 41 40 34 33 31 26 29 32 34 35 31 28 32 34 39 41 48 44 39 44 53 51 47 41 45 45 46 42 28 38
33 36 38 35 36 36 34 31 32 36 44 44 40 41 41 39 36 35 41 47 48 46 51 56 52 48 51 54 55 37 16 21
20 22 23 26 26 23 27 34 41 43 44 46 51 56 56 51 45 38 38 47 54 60 55 58 60 55 56 60 60 55 49 31
Wind_Direction_850mb
172 183 188 191 195 198 197 196 194 192 190 189 189 187 185 185 183 174 166 161 155 146 156 139 141 148 108 76 79 95 92 116
176 192 196 197 199 202 204 203 201 198 195 192 192 191 190 192 189 180 170 165 162 153 160 146 150 164 98 98 94 102 92 111
188 194 199 203 206 210 211 211 209 205 202 199 198 197 197 199 195 188 176 168 166 163 167 157 153 162 110 105 98 103 87 90
203 205 202 205 208 213 218 218 215 212 209 207 204 203 204 205 202 195 183 173 172 173 174 165 155 162 115 91 88 83 71 75
217 217 213 210 213 215 219 221 220 216 214 212 211 208 209 209 207 203 194 182 177 183 181 176 164 170 154 84 46 26 26 41
217 220 221 221 219 221 224 224 223 220 218 215 214 212 213 212 212 210 202 193 183 188 193 186 177 179 180 129 6 358 327 334
220 222 221 223 226 225 228 229 229 225 221 219 217 216 216 216 217 217 212 204 196 192 199 201 193 185 184 185 302 355 342 299
234 237 236 232 233 237 230 230 229 228 227 225 221 221 220 220 221 223 222 218 213 205 202 216 207 205 203 214 241 255 288 310
228 242 243 247 243 243 243 238 235 231 230 229 226 224 225 226 226 229 232 230 225 220 211 214 218 219 215 224 250 269 272 275
244 234 248 249 250 249 247 249 245 238 237 237 232 229 229 231 233 235 237 237 233 226 220 211 221 220 232 244 263 276 282 273
243 249 231 233 231 235 246 251 255 247 241 241 238 239 238 237 236 239 243 243 242 238 229 221 214 226 236 251 266 285 288 267
247 231 211 222 220 227 238 243 255 254 247 243 243 245 250 249 247 244 245 248 249 244 232 227 221 224 237 249 259 254 240 259
238 232 190 207 236 237 241 244 257 264 259 254 254 248 253 255 252 251 250 250 249 244 240 230 226 232 236 247 251 260 244 231
233 219 230 237 237 249 230 244 247 257 258 265 265 265 267 260 254 253 252 251 249 244 239 234 229 234 248 251 252 250 239 224
232 230 233 244 233 238 230 233 236 249 263 267 277 276 283 273 277 268 255 250 245 245 237 237 237 252 249 247 234 225 221 221
226 227 237 233 239 237 235 232 244 264 270 285 297 304 298 283 285 279 254 251 248 242 235 238 242 248 248 234 220 218 219 223
235 238 241 239 234 242 240 260 270 279 277 268 277 287 297 292 286 283 273 252 255 246 233 236 239 238 235 229 212 219 216 228
235 237 243 236 239 248 250 248 261 269 277 277 283 288 292 300 296 291 287 271 256 247 239 234 238 234 234 222 225 214 202 218
194 196 198 212 229 234 240 250 254 260 275 284 281 281 283 282 284 289 292 281 266 248 244 241 239 237 235 231 227 233 235 246